This demonstration page uses our WeatherBlox Daily Observations layout. Learn more.

Left ArrowRight Arrow

40.92945, -100.16068

Hourly Observations for April 3, 2016

Temp ( °F °C ) Dew Point ( °F °C ) Humidity (%) Winds ( mph kmh ) Pressure ( in mb ) Visibility ( mi km ) Precip ( " mm )
12:15 am 00:15 Clear 50 10.2 30 -1.2 45 45 SSW 14 22 29.97 1015 10 16 N/A
12:35 am 00:35 Clear 49 9.7 30 -1.1 47 47 SSW 13 20 29.97 1015 10 16 N/A
12:55 am 00:55 Clear 49 9.7 31 -0.8 48 48 SSW 12 19 29.97 1015 10 16 N/A
1:15 am 01:15 Clear 50 9.9 31 -0.7 48 48 SSW 14 22 29.97 1015 10 16 N/A
1:35 am 01:35 Clear 50 10.2 31 -0.8 47 47 SSW 15 24 29.97 1015 10 16 N/A
1:55 am 01:55 Clear 51 10.5 31 -0.6 46 46 SW 12 19 29.97 1015 10 16 N/A
2:15 am 02:15 Clear 49 9.7 31 -0.7 49 49 SW 13 20 29.97 1015 10 16 N/A
2:35 am 02:35 Clear 49 9.5 31 -0.6 50 50 SSW 15 24 30.00 1016 10 16 N/A
2:55 am 02:55 Clear 48 9.1 31 -0.6 51 51 SW 13 20 30.00 1016 10 16 N/A
3:15 am 03:15 Clear 47 8.6 31 -0.6 53 53 SW 12 19 29.97 1015 10 16 N/A
3:35 am 03:35 Clear 47 8.1 31 -0.7 54 54 SW 8 13 29.97 1015 10 16 N/A
3:55 am 03:55 Clear 45 7 30 -1.1 57 57 WSW 8 13 29.97 1015 10 16 N/A
4:15 am 04:15 Clear 44 6.7 30 -1.2 57 57 WSW 6 9 29.97 1015 10 16 N/A
4:35 am 04:35 Clear 41 5 29 -1.8 62 62 W 6 9 30.00 1016 10 16 N/A
4:55 am 04:55 Clear 40 4.3 29 -1.5 66 66 NW 6 9 29.97 1015 10 16 N/A
5:15 am 05:15 Clear 41 5.2 29 -1.8 61 61 N N/A 29.97 1015 10 16 N/A
5:35 am 05:35 Clear 36 2.1 26 -3.4 67 67 NW 6 9 30.00 1016 10 16 N/A
5:55 am 05:55 Clear 37 2.6 26 -3.1 66 66 WNW 5 7 30.00 1016 10 16 N/A
6:15 am 06:15 Clear 36 2 26 -3.2 69 69 N N/A 30.00 1016 10 16 N/A
6:35 am 06:35 Clear 35 1.6 27 -2.9 72 72 N N/A 30.00 1016 10 16 N/A
6:55 am 06:55 Clear 36 2 27 -2.8 71 71 S 9 15 29.97 1015 10 16 N/A
7:15 am 07:15 Clear 36 2.3 28 -2.5 71 71 SSW 8 13 29.97 1015 10 16 N/A
7:35 am 07:35 Sunny 39 4.1 28 -2.4 63 63 WSW 8 13 29.94 1014 10 16 N/A
7:55 am 07:55 Sunny 40 4.2 29 -1.8 65 65 NW 9 15 29.94 1014 10 16 N/A
8:15 am 08:15 Sunny 41 4.9 31 -0.8 67 67 NW 7 11 29.94 1014 10 16 N/A
8:35 am 08:35 Sunny 46 7.7 32 -0.2 58 58 WNW 8 13 29.91 1013 10 16 N/A
8:55 am 08:55 Sunny 48 9.1 32 -0.1 53 53 WNW 6 9 29.88 1012 10 16 N/A
9:15 am 09:15 Sunny 50 10.1 33 0.3 51 51 WNW 5 7 29.88 1012 10 16 N/A
9:35 am 09:35 Sunny 56 13.6 34 1 43 43 W 9 15 29.85 1011 10 16 N/A
9:55 am 09:55 Sunny 61 16.3 34 1.3 36 36 WNW 10 17 29.83 1010 10 16 N/A
10:15 am 10:15 Sunny 65 18.1 32 0.2 30 30 W 20 31 29.83 1010 10 16 N/A
10:35 am 10:35 Sunny 66 19.1 32 undefined 28 28 WNW 17 28 29.80 1009 10 16 N/A
10:55 am 10:55 Sunny 67 19.6 32 0.1 27 27 W 17 28 29.80 1009 10 16 N/A
11:15 am 11:15 Sunny 68 20 33 0.6 27 27 W 16 26 29.80 1009 10 16 N/A
11:35 am 11:35 Sunny 69 20.7 33 0.3 26 26 WNW 15 24 29.80 1009 10 16 N/A
11:55 am 11:55 Sunny 70 21.3 34 0.9 26 26 WNW 15 24 29.80 1009 10 16 N/A
12:15 pm 12:15 Sunny 71 21.7 34 1 25 25 NW 16 26 29.80 1009 10 16 N/A
12:35 pm 12:35 Sunny 73 22.5 34 0.9 24 24 NW 15 24 29.74 1007 10 16 N/A
12:55 pm 12:55 Sunny 73 23 33 0.4 22 22 NW 14 22 29.74 1007 10 16 N/A
1:15 pm 13:15 Sunny 74 23.5 33 0.4 22 22 NW 14 22 29.74 1007 10 16 N/A
1:35 pm 13:35 Sunny 75 24.1 31 -0.6 20 20 WNW 13 20 29.71 1006 10 16 N/A
1:55 pm 13:55 Sunny 76 24.5 32 -0.1 20 20 W 14 22 29.71 1006 10 16 N/A
2:15 pm 14:15 Partly Cloudy 76 24.7 31 -0.3 19 19 WNW 17 28 29.71 1006 10 16 N/A
2:35 pm 14:35 Partly Cloudy 78 25.5 30 -1.1 17 17 WNW 25 41 29.68 1005 10 16 N/A
2:55 pm 14:55 Partly Cloudy 78 25.6 31 -0.8 18 18 WNW 17 28 29.68 1005 10 16 N/A
3:15 pm 15:15 Mostly Cloudy 78 25.6 32 -0.1 18 18 NNW 20 31 29.68 1005 10 16 N/A
3:35 pm 15:35 Partly Cloudy 75 24 31 -0.5 20 20 NW 14 22 29.71 1006 10 16 N/A
3:55 pm 15:55 Sunny 78 25.4 31 -0.5 18 18 WNW 16 26 29.68 1005 10 16 N/A
4:15 pm 16:15 Sunny 78 25.4 31 -0.8 18 18 NNW 25 41 29.68 1005 10 16 N/A
4:35 pm 16:35 Partly Cloudy 77 24.8 30 -1 18 18 NW 21 33 29.71 1006 10 16 N/A
4:55 pm 16:55 Partly Cloudy 75 24 28 -2.4 17 17 NW 18 30 29.71 1006 10 16 N/A
5:15 pm 17:15 Sunny 77 25.1 29 -1.9 17 17 NNW 20 31 29.68 1005 10 16 N/A
5:35 pm 17:35 Partly Cloudy 77 24.9 28 -2.3 16 16 NNW 22 35 29.71 1006 10 16 N/A
5:55 pm 17:55 Partly Cloudy 76 24.3 27 -2.7 16 16 NW 20 31 29.71 1006 10 16 N/A
6:15 pm 18:15 Partly Cloudy 76 24.3 29 -1.7 18 18 N 18 30 29.71 1006 10 16 N/A
6:35 pm 18:35 Partly Cloudy 73 22.9 29 -1.5 20 20 NNW 14 22 29.71 1006 10 16 N/A
6:55 pm 18:55 Sunny 72 22.4 31 -0.8 21 21 NNW 17 28 29.74 1007 10 16 N/A
7:15 pm 19:15 Sunny 73 22.6 30 -1 21 21 N 16 26 29.74 1007 10 16 N/A
7:35 pm 19:35 Partly Cloudy 70 21.1 29 -1.6 22 22 NNW 13 20 29.77 1008 10 16 N/A
7:55 pm 19:55 Mostly Cloudy 70 21.1 29 -1.7 22 22 N 18 30 29.80 1009 10 16 N/A
8:15 pm 20:15 Partly Cloudy 68 20.1 29 -1.4 24 24 N 18 30 29.83 1010 10 16 N/A
8:35 pm 20:35 Mostly Cloudy 66 18.9 29 -1.5 25 25 NNW 14 22 29.85 1011 10 16 N/A
8:55 pm 20:55 Partly Cloudy 62 16.8 30 -1.3 29 29 N 12 19 29.85 1011 10 16 N/A
9:15 pm 21:15 Clear 58 14.2 29 -1.5 34 34 NNW 10 17 29.91 1013 10 16 N/A
9:35 pm 21:35 Clear 55 12.5 29 -1.8 37 37 NNW 9 15 29.97 1015 10 16 N/A
9:55 pm 21:55 Clear 52 11.1 28 -2 40 40 N 8 13 29.97 1015 10 16 N/A
10:15 pm 22:15 Clear 51 10.5 29 -1.6 43 43 N 9 15 29.97 1015 10 16 N/A
10:35 pm 22:35 Clear 51 10.5 29 -1.4 44 44 NNW 9 15 30.00 1016 10 16 N/A
10:55 pm 22:55 Clear 49 9.5 30 -1 48 48 NNW 12 19 30.03 1017 10 16 N/A
11:15 pm 23:15 Clear 48 8.8 30 -1.2 50 50 NNW 7 11 30.06 1018 10 16 N/A
11:35 pm 23:35 Clear 46 8 30 -1.1 53 53 NNW 5 7 30.06 1018 10 16 N/A
11:55 pm 23:55 Clear 43 6.2 30 -1.3 59 59 N 6 9 30.09 1019 10 16 N/A

Powered by AerisWeather